CAPE
4 5 8 11 9 7 6 5 11 14 9 13 14 14 28 34 30 24 12 0 0 5 0 0 0 0 0 2 11 0 0 0 0 0 3 0 1 1 12 11 4 10 4 7 12 1 0 1 3 17 8 3 10 0
5 7 8 4 5 7 8 14 13 13 13 12 19 16 14 29 41 42 25 0 0 1 0 0 0 1 0 0 3 7 3 0 0 0 0 22 10 14 11 3 5 0 1 2 2 0 1 2 3 0 0 2 8 0
8 7 6 6 4 7 9 7 8 11 12 13 18 21 21 21 24 41 39 10 1 3 0 0 0 0 0 0 0 3 0 0 0 0 0 16 3 10 1 2 2 7 7 3 5 0 0 4 3 3 3 9 0 0
2 3 3 3 6 7 6 10 8 6 5 7 13 20 21 20 20 25 19 18 0 1 1 0 0 0 0 0 0 0 0 0 0 0 1 3 3 5 6 4 7 9 13 8 4 3 16 2 16 5 5 1 0 0
2 2 4 7 6 8 6 5 3 4 5 11 12 10 10 9 15 10 2 4 0 0 2 0 0 0 0 0 0 0 0 0 0 0 3 2 0 4 1 0 2 10 16 11 5 41 23 28 72 15 2 6 7 0
1 6 7 5 7 3 3 4 5 5 7 8 7 7 6 11 17 13 3 0 0 0 2 3 0 0 0 0 0 0 0 0 0 0 0 0 0 1 0 0 0 0 0 4 36 46 32 54 22 11 7 5 2 0
4 4 4 5 4 4 3 7 9 8 9 6 1 3 6 5 7 8 0 3 0 0 6 3 0 0 0 0 0 0 0 0 0 1 1 0 0 0 0 0 0 0 0 0 0 1 9 12 31 8 4 4 1 1
2 4 4 6 3 3 7 8 6 6 14 10 0 0 2 6 9 8 0 0 3 6 9 2 0 0 0 0 0 0 0 4 5 10 0 0 0 0 0 0 0 0 0 0 0 0 0 0 0 0 0 0 0 0
2 3 7 2 3 3 6 7 34 25 0 0 0 0 0 0 1 0 1 0 2 4 5 0 0 0 0 0 0 0 0 1 0 5 0 0 0 0 0 0 0 0 0 0 0 0 0 1 0 0 0 0 0 0
3 3 4 4 3 8 5 28 19 2 0 0 0 0 7 0 0 0 21 12 3 13 16 23 0 0 0 0 0 0 0 0 2 0 0 0 0 0 0 0 0 0 0 0 0 0 0 0 1 0 0 0 0 0
3 6 4 6 5 8 15 22 6 0 0 0 0 0 0 0 0 42 54 29 0 1 0 0 0 0 0 0 0 0 0 0 0 0 0 0 0 0 0 0 0 0 0 0 0 0 0 0 0 0 0 0 0 0
4 2 3 6 6 9 12 20 18 0 0 0 1 1 1 0 0 20 11 7 3 0 0 0 0 0 0 0 0 0 0 0 0 0 0 0 0 0 0 0 0 0 0 0 0 0 0 0 0 0 0 0 0 0
4 2 3 8 4 17 19 8 3 7 1 0 5 4 22 3 2 6 0 3 10 16 34 26 9 0 0 0 0 0 0 0 0 0 0 0 0 0 0 0 0 0 0 0 0 0 0 0 0 0 0 0 0 0
6 4 5 6 5 16 7 0 3 2 0 0 0 0 12 0 0 0 0 0 17 11 7 0 7 0 0 0 0 0 0 0 0 0 0 0 0 0 0 0 0 0 0 0 0 0 0 0 0 0 0 0 0 0
6 2 3 1 4 2 0 0 1 0 0 0 0 0 0 0 0 0 0 0 5 0 0 0 0 0 0 0 0 0 0 0 0 0 0 0 0 0 0 0 0 0 0 0 0 0 0 0 0 0 0 0 0 0
8 1 0 0 0 3 2 0 0 0 0 0 0 1 0 0 0 0 0 0 0 0 0 0 1 1 0 0 0 0 0 0 0 0 0 0 0 0 0 0 0 0 0 0 0 0 0 0 0 0 0 0 0 0
11 0 0 0 3 5 0 0 0 1 0 0 0 0 0 0 0 0 0 0 0 0 0 0 17 0 0 1 0 0 0 0 0 0 0 0 0 0 0 0 0 0 0 0 0 0 0 0 0 0 0 0 0 0
0 0 0 7 22 1 0 0 5 5 3 0 0 0 0 0 0 0 0 0 0 0 0 3 37 37 2 0 0 0 0 0 0 0 0 0 0 0 0 0 0 0 0 0 0 0 0 0 0 0 0 0 0 0
1 1 2 2 18 10 0 0 0 4 0 0 0 0 0 0 0 0 0 0 0 0 0 0 9 19 3 0 0 0 0 0 0 0 0 0 0 0 0 0 0 0 0 0 0 0 0 0 0 0 0 0 0 0
0 0 0 3 8 0 0 0 0 0 0 13 0 2 0 0 0 0 0 0 0 0 6 8 3 0 10 2 0 0 0 0 0 0 0 0 0 0 0 0 0 0 0 0 0 0 0 0 0 0 0 0 0 0
0 0 0 0 0 0 0 0 0 0 0 0 0 0 0 0 0 0 0 0 0 0 0 0 0 0 0 0 0 0 0 0 0 0 0 0 0 0 0 0 0 0 0 0 0 0 0 0 0 0 0 0 0 0
0 0 2 3 2 0 0 0 0 0 0 0 0 0 0 0 0 0 0 0 0 3 0 0 0 1 1 0 0 0 0 0 0 0 0 0 0 0 0 0 0 0 0 0 0 0 0 0 0 0 0 0 0 0
0 4 25 20 7 0 0 0 0 0 8 1 0 0 0 1 0 0 0 0 16 13 1 1 1 0 1 0 0 0 0 0 0 0 0 0 0 0 0 0 0 0 0 0 0 0 0 0 0 0 0 0 0 0
0 10 14 1 5 0 0 0 0 0 0 0 0 0 1 7 6 0 4 45 32 10 19 11 6 4 1 0 1 0 0 0 0 0 0 0 0 0 0 0 0 0 0 0 0 0 0 0 0 0 0 0 0 0
0 0 0 0 0 1 0 0 0 0 0 0 0 0 6 36 7 7 34 17 5 12 11 21 5 5 8 11 5 4 2 1 0 0 0 0 0 0 0 0 0 0 0 0 0 0 0 0 0 0 0 0 0 0
0 0 0 0 0 0 0 1 0 0 0 0 0 13 8 10 6 33 35 5 14 14 3 5 7 3 4 13 9 7 5 6 2 0 0 0 0 0 0 0 0 0 0 0 0 0 0 0 0 0 0 0 0 0
0 0 0 0 0 0 2 0 0 0 0 0 6 8 4 0 1 2 15 15 6 3 5 7 9 6 7 5 10 13 7 4 2 0 0 0 0 0 0 0 0 0 0 0 0 0 0 0 0 0 0 0 0 0
0 0 0 0 2 0 7 1 0 0 0 0 0 6 5 1 0 3 34 9 6 4 6 8 11 9 8 8 8 11 2 0 0 0 0 0 0 0 0 0 0 0 0 0 0 0 0 0 0 0 0 0 0 0
0 0 0 0 0 0 0 0 0 0 0 0 0 6 4 4 8 5 7 4 6 5 5 7 5 6 8 5 5 5 4 1 1 2 3 2 3 0 0 0 0 0 0 0 0 0 0 0 0 0 0 0 0 0
0 0 0 0 1 1 4 0 0 0 0 0 0 0 3 8 7 6 4 3 7 5 7 5 6 5 7 6 4 2 3 0 2 3 2 1 10 5 0 0 0 0 0 0 0 0 0 0 0 0 0 0 0 0
0 0 1 0 0 0 0 1 0 0 0 0 0 4 2 4 3 0 2 3 3 5 0 0 0 1 8 5 6 4 1 2 3 2 2 4 7 7 2 0 0 0 0 0 0 0 0 0 0 0 0 0 0 0
0 1 0 1 0 0 0 0 0 0 0 0 2 17 4 0 0 0 1 1 0 0 2 4 5 3 5 4 3 2 2 2 1 2 2 1 1 2 4 1 0 0 0 0 0 0 0 0 0 0 0 0 0 0
0 0 0 0 0 0 0 0 1 0 0 0 0 5 3 1 0 1 0 0 2 2 1 2 3 2 2 0 0 0 0 0 0 0 0 0 0 0 1 2 2 1 0 0 0 0 0 0 0 0 0 0 0 0
CIN
0 0 -2 0 0 0 0 0 0 0 0 0 0 0 0 0 0 -3 -8 0 0 0 0 0 0 0 0 -1 -1 0 0 0 0 0 0 0 0 0 0 0 0 0 0 0 0 0 0 0 0 0 -4 0 0 0
0 0 0 0 0 0 0 0 0 0 0 0 0 0 0 0 0 -1 -1 0 0 0 0 0 0 0 0 0 -6 -2 -1 0 0 0 0 0 0 0 0 0 0 0 0 0 0 0 0 0 0 0 0 0 0 0
0 0 0 0 0 0 0 0 0 0 0 0 0 0 0 0 0 0 -1 -13 0 0 0 0 0 0 0 0 0 0 0 0 0 0 0 0 0 0 0 0 0 0 0 0 0 0 0 0 0 -3 -2 0 0 0
0 0 0 0 0 0 0 0 0 0 0 0 0 0 0 0 0 0 -1 -5 0 -1 0 0 0 0 0 0 0 0 0 0 0 0 0 0 0 0 0 0 0 0 0 0 0 0 0 0 0 0 0 0 0 0
0 0 0 0 0 0 0 0 0 0 0 0 0 0 0 0 0 -1 -2 -1 -2 0 0 0 0 0 0 0 0 0 0 0 0 0 0 0 0 -1 0 0 0 -7 0 0 -4 0 0 0 0 -4 0 0 0 0
0 0 0 0 0 0 0 0 0 0 0 0 0 0 0 0 0 0 0 0 0 0 0 0 0 0 0 0 0 0 0 0 0 0 0 0 0 -2 0 0 0 0 -1 -30 -9 -2 -1 -2 0 -3 -8 -1 0 0
0 0 0 0 0 0 0 0 0 0 0 0 0 0 0 0 -1 -1 0 0 0 0 0 0 0 0 0 0 0 0 0 -1 0 -1 -3 0 0 0 0 0 0 0 0 0 0 -4 -6 -4 0 -1 -4 0 0 0
0 0 0 0 0 0 0 0 0 0 0 0 0 0 0 0 0 0 0 -3 -2 0 0 -4 0 0 0 0 0 0 0 0 0 -1 -9 0 0 0 0 0 0 0 0 0 0 0 0 0 0 0 0 0 0 0
0 0 0 0 0 0 0 0 -1 0 0 0 0 0 0 0 0 0 0 0 -3 0 0 -3 0 0 0 0 0 0 0 0 0 -2 0 0 0 0 0 0 0 0 0 0 0 0 0 -16 0 0 0 0 0 0
0 0 0 0 0 0 0 -1 -4 -2 0 0 0 0 -8 0 0 0 -10 -9 0 0 0 0 0 0 0 0 0 0 0 0 -20 0 0 0 0 0 0 0 0 0 0 0 0 0 0 0 -23 0 0 0 0 0
0 0 0 0 0 0 -1 0 -1 0 0 0 0 0 0 0 0 -10 0 -1 0 0 0 0 0 0 0 0 0 0 0 0 0 0 0 0 0 0 0 0 0 0 0 0 0 0 0 0 0 0 0 0 0 0
0 0 0 0 0 0 -1 -2 0 0 0 -2 -1 -1 0 0 0 -12 -14 -8 -2 0 0 0 0 0 0 0 0 0 0 0 0 0 0 0 0 0 0 0 0 0 0 0 0 0 0 0 0 0 0 0 0 0
0 0 0 0 0 0 -1 0 0 0 0 0 0 0 -1 -10 -4 -3 -1 -4 -3 -2 -1 -4 0 0 0 0 0 0 0 0 0 0 0 0 0 0 0 0 0 0 0 0 0 0 0 0 0 0 0 0 0 0
0 0 0 0 0 -1 0 0 0 -2 0 0 -1 -1 -1 0 0 0 0 0 0 -5 -19 0 -8 -2 0 0 0 0 0 0 0 0 0 0 0 0 0 0 0 0 0 0 0 0 0 0 0 0 0 0 0 0
0 0 0 0 -2 -2 0 0 0 0 0 0 -1 0 0 0 0 0 0 -1 -4 -2 0 0 0 0 0 0 0 0 0 0 0 0 0 0 0 0 0 0 0 0 0 0 0 0 0 0 0 0 0 0 0 0
0 0 -1 0 0 0 0 -1 0 0 0 0 0 0 0 0 0 0 0 0 0 0 0 0 -16 -17 0 0 0 0 0 0 0 0 0 0 0 0 0 0 0 0 0 0 0 0 0 0 0 0 0 0 0 0
0 0 0 0 0 0 0 0 0 0 0 0 0 0 0 0 0 0 0 0 0 0 0 0 -13 -4 0 0 0 0 0 0 0 0 0 0 0 0 0 0 0 0 0 0 0 0 0 0 0 0 0 0 0 0
0 0 0 0 -1 -1 0 0 0 0 0 0 0 0 0 0 0 0 0 0 0 0 0 -4 -5 -2 -2 0 0 0 0 0 0 0 0 0 0 0 0 0 0 0 0 0 0 0 0 0 0 0 0 0 0 0
-1 -1 0 0 -1 -4 0 0 -5 0 0 0 0 0 0 0 0 0 0 0 0 0 0 0 -9 -4 -5 0 0 0 0 0 0 0 0 0 0 0 0 0 0 0 0 0 0 0 0 0 0 0 0 0 0 0
0 0 0 -10 -6 0 -1 0 0 0 0 -21 0 -14 0 0 0 0 0 0 0 0 -24 -16 -16 0 -63 -16 0 0 0 0 0 0 0 0 0 0 0 0 0 0 0 0 0 0 0 0 0 0 0 0 0 0
0 0 0 0 0 0 0 0 0 0 0 0 -1 0 0 0 0 0 0 0 0 0 0 0 0 0 0 0 0 0 0 0 0 0 0 0 0 0 0 0 0 0 0 0 0 0 0 0 0 0 0 0 0 0
0 0 -3 -12 -1 0 -1 0 0 0 0 0 0 0 0 0 0 0 0 0 0 -26 0 0 0 -1 0 0 0 0 0 0 0 0 0 0 0 0 0 0 0 0 0 0 0 0 0 0 0 0 0 0 0 0
0 -6 -1 0 0 0 0 0 0 0 -9 -6 0 0 -3 0 -5 0 0 0 -5 -12 -2 -1 0 -3 0 0 0 0 0 0 0 0 0 0 0 0 0 0 0 0 0 0 0 0 0 0 0 0 0 0 0 0
0 -2 -1 -1 -1 0 0 0 0 0 0 -3 0 0 0 0 0 0 -9 -4 -3 0 0 0 0 0 -1 0 0 0 0 0 0 0 0 0 0 0 0 0 0 0 0 0 0 0 0 0 0 0 0 0 0 0
0 0 0 0 -1 0 0 0 -1 0 0 0 0 0 0 0 0 0 0 0 0 0 0 0 0 0 0 0 0 0 0 0 0 0 0 0 0 0 0 0 0 0 0 0 0 0 0 0 0 0 0 0 0 0
0 0 0 0 0 0 0 -1 0 0 0 0 0 -2 0 0 0 0 0 0 0 0 0 0 0 0 0 0 0 0 0 0 0 0 0 0 0 0 0 0 0 0 0 0 0 0 0 0 0 0 0 0 0 0
0 0 0 0 0 -1 0 0 0 0 0 0 -6 0 0 0 0 0 0 0 0 0 0 0 0 0 0 0 0 0 0 0 0 0 0 0 0 0 0 0 0 0 0 0 0 0 0 0 0 0 0 0 0 0
0 0 0 0 0 0 0 -3 0 0 0 0 0 0 0 0 0 0 0 0 0 0 0 0 0 0 0 0 0 0 0 0 0 0 0 0 0 0 0 0 0 0 0 0 0 0 0 0 0 0 0 0 0 0
0 0 0 0 0 0 0 0 0 0 0 0 0 -7 0 0 0 0 0 0 0 0 0 0 0 0 0 0 0 0 0 0 0 0 0 0 0 0 0 0 0 0 0 0 0 0 0 0 0 0 0 0 0 0
0 0 0 0 0 0 0 0 0 0 0 0 0 0 0 0 0 0 0 0 0 0 0 0 0 0 0 0 0 0 0 0 0 0 0 0 0 0 0 0 0 0 0 0 0 0 0 0 0 0 0 0 0 0
0 0 0 0 0 0 0 0 0 0 0 0 0 0 0 0 0 0 0 0 0 0 0 0 0 0 0 0 0 0 0 0 0 0 0 0 0 0 0 0 0 0 0 0 0 0 0 0 0 0 0 0 0 0
-2 -1 -10 -1 0 0 0 0 0 0 0 0 0 0 0 0 0 0 0 0 0 0 0 0 0 0 0 0 0 0 0 0 0 0 0 0 0 0 0 0 0 0 0 0 0 0 0 0 0 0 0 0 0 0
0 0 0 0 0 0 0 0 0 0 0 0 0 0 0 0 0 0 0 0 0 0 0 0 0 0 0 0 0 0 0 0 0 0 0 0 0 0 0 0 0 0 0 0 0 0 0 0 0 0 0 0 0 0
Wind_Speed
16 17 18 17 15 16 17 18 18 18 19 19 19 18 17 14 13 6 3 7 4 4 8 9 4 6 6 4 3 5 7 4 4 6 4 4 3 4 5 3 3 2 2 4 4 6 9 10 9 7 3 7 8 7
16 16 15 13 17 18 19 19 20 19 19 19 19 18 18 17 14 8 3 3 4 4 8 13 19 23 22 18 5 3 3 3 2 2 2 3 3 4 5 4 1 2 2 2 3 3 6 14 15 18 16 15 7 8
16 13 14 16 17 17 18 19 20 20 20 19 19 18 17 17 16 9 3 3 2 4 8 3 7 7 9 19 17 5 3 3 2 2 2 2 5 3 4 3 4 3 5 3 4 4 10 21 5 10 8 8 9 7
10 14 15 16 17 18 18 19 20 21 21 20 19 18 17 17 16 12 3 1 2 2 4 9 3 8 6 8 14 20 1 2 3 1 2 2 4 3 3 5 3 3 8 7 3 7 12 12 19 14 11 16 13 14
12 14 15 16 18 19 20 21 21 22 22 21 20 20 18 18 16 10 6 6 7 3 4 8 13 5 6 6 10 13 8 2 1 1 3 4 3 3 2 3 3 4 5 6 4 13 6 13 13 13 16 18 14 15
13 14 15 17 18 20 20 21 22 23 23 23 23 22 20 17 13 3 4 1 6 5 2 5 5 5 4 2 6 8 7 3 2 2 3 4 4 2 2 3 5 5 4 2 4 3 7 8 11 12 12 13 16 13
12 13 15 16 18 20 21 22 23 24 24 25 24 23 21 15 4 4 3 1 5 4 3 4 5 5 2 2 1 2 2 2 3 2 3 3 3 1 1 2 5 7 7 7 9 6 5 7 5 8 8 10 8 9
11 13 15 17 19 21 22 22 22 22 23 25 26 23 19 13 7 4 6 13 6 3 3 2 5 6 3 2 1 2 2 2 4 2 1 3 4 0 2 5 5 5 6 8 7 6 3 5 7 9 7 7 9 10
12 14 16 18 19 20 21 20 22 21 26 27 22 10 2 2 3 2 6 8 7 2 3 3 1 5 4 2 1 1 1 2 0 2 3 2 2 4 6 3 2 4 4 3 4 8 8 9 11 10 10 10 10 8
12 14 16 18 19 20 19 20 20 24 28 20 5 2 2 1 13 8 5 2 4 5 4 4 3 4 1 1 2 1 1 2 2 4 1 2 4 4 5 5 2 2 5 4 6 5 7 7 8 8 8 7 8 9
13 14 16 17 19 19 19 19 21 24 10 6 5 3 4 12 2 2 2 3 2 3 3 3 5 4 2 3 4 2 2 1 2 4 0 3 4 4 4 4 4 1 6 6 5 4 5 5 5 4 8 10 10 11
14 15 17 18 19 20 19 17 19 6 2 5 7 7 4 2 2 3 4 3 5 5 2 3 3 5 4 2 2 1 2 2 4 2 1 3 5 3 5 4 1 6 8 8 6 5 6 8 6 6 7 8 10 11
14 16 17 18 18 19 14 18 19 19 11 2 3 4 3 2 2 5 5 3 2 1 2 3 3 3 2 2 1 2 2 4 2 3 4 6 3 2 5 4 5 5 7 8 7 7 7 7 7 6 8 7 9 11
15 17 18 19 18 15 18 19 20 12 3 3 3 5 5 4 5 5 3 2 2 4 5 5 3 3 2 3 2 3 3 3 3 1 7 4 4 4 5 5 5 5 6 8 7 7 8 8 6 7 6 5 8 10
15 18 20 9 13 17 20 21 20 1 2 3 4 6 6 4 3 3 2 3 3 3 2 4 3 2 1 1 2 1 3 3 6 7 5 5 4 5 5 4 5 2 5 6 6 7 7 7 7 7 5 5 7 8
15 15 2 15 20 21 23 16 2 2 2 3 5 5 4 2 3 2 2 3 2 3 2 1 2 2 4 3 3 6 5 7 6 5 4 3 3 5 4 6 6 5 4 5 6 7 7 8 8 7 7 7 7 8
12 3 9 19 22 24 21 2 1 4 4 4 5 4 5 4 5 4 2 4 1 2 3 1 3 6 2 1 3 3 5 5 4 4 3 4 6 7 6 6 7 6 5 6 6 7 6 6 8 9 10 5 7 8
3 5 16 19 16 11 2 1 3 3 6 5 4 3 3 3 3 4 4 2 1 2 1 4 1 4 3 3 4 4 4 4 4 3 3 4 5 4 5 6 6 7 6 5 6 7 7 8 7 5 8 8 8 7
8 10 18 19 10 4 3 3 2 4 6 3 4 3 3 4 4 4 4 3 4 3 2 3 4 4 4 4 4 3 4 2 3 3 3 5 5 6 6 6 5 5 8 7 7 7 7 8 7 7 6 5 7 5
16 16 13 9 2 1 4 4 1 3 4 4 4 4 3 4 4 3 4 4 2 3 4 4 4 3 2 3 2 4 4 3 2 3 4 3 3 5 6 6 5 6 6 6 5 7 6 5 4 5 6 7 7 6
8 4 7 3 2 1 2 3 4 4 5 3 4 4 5 3 4 3 3 1 1 3 3 3 4 6 5 7 6 4 7 4 5 4 5 4 4 5 4 4 4 4 5 5 6 5 7 7 6 6 6 6 6 6
3 4 2 0 1 2 3 3 3 4 3 4 4 4 4 4 5 4 2 1 0 1 3 5 7 8 10 11 11 10 11 12 9 7 5 3 4 3 4 6 5 5 6 7 7 8 6 6 7 7 8 7 7 6
2 2 1 1 2 2 7 1 2 3 3 5 5 5 4 4 3 3 2 1 2 2 4 5 8 9 9 11 9 7 6 8 6 6 7 7 8 6 5 6 7 7 6 5 6 7 8 10 10 9 9 8 8 7
1 1 1 2 2 4 3 3 1 3 3 4 4 7 5 4 4 3 1 2 2 3 4 8 7 7 6 8 6 6 7 4 7 7 4 4 5 6 6 7 7 8 7 8 8 8 9 10 11 10 10 10 8 8
1 4 1 3 2 3 3 3 2 3 4 7 5 3 3 3 3 1 4 6 7 7 10 7 7 8 7 8 8 8 10 9 9 10 8 4 3 2 2 3 4 5 8 10 9 11 11 10 10 11 11 10 11 10
2 4 6 4 2 2 3 4 2 3 5 4 3 4 3 3 2 5 4 8 6 7 9 10 8 8 8 7 9 9 11 9 8 9 8 6 6 5 6 7 7 5 6 9 13 13 13 13 13 15 11 11 11 12
3 4 4 4 1 1 3 3 3 2 4 4 2 4 4 4 6 5 5 4 7 8 9 8 8 8 9 9 10 10 11 10 9 9 7 5 1 3 6 8 10 6 8 11 12 15 17 15 14 13 12 10 10 10
4 2 5 3 3 3 2 2 2 3 3 3 3 3 6 4 4 5 4 9 9 9 9 9 9 8 8 9 9 10 12 13 12 3 2 3 5 6 6 2 3 13 7 10 12 13 14 16 16 15 15 14 10 9
4 3 2 5 3 3 4 3 3 3 2 1 1 3 3 2 4 4 5 8 8 7 8 9 10 10 10 9 9 9 11 12 17 17 16 11 10 8 10 5 3 2 6 7 7 9 14 12 13 14 15 12 10 9
4 3 2 3 3 3 3 5 4 3 1 1 2 5 3 1 4 5 7 8 9 9 9 9 9 11 11 12 11 13 10 11 10 9 8 9 10 10 8 7 5 4 6 9 10 12 14 13 14 12 12 10 9 8
2 3 3 3 4 4 4 5 5 2 2 0 1 2 4 4 2 6 9 8 8 8 10 10 10 10 10 11 12 12 12 12 15 15 13 6 8 10 10 7 6 5 6 9 11 11 11 10 10 12 13 12 12 11
3 4 2 3 4 4 2 2 1 2 2 2 3 1 3 3 3 3 7 8 8 8 9 9 10 10 11 9 9 9 12 10 13 13 17 12 11 11 11 10 8 8 9 8 8 10 14 13 8 12 13 14 13 11
1 3 4 3 3 3 3 3 2 3 3 2 2 3 3 2 3 3 3 7 6 7 7 7 7 7 9 11 11 10 12 10 15 18 20 20 19 16 11 10 9 9 13 10 9 9 13 18 12 13 15 14 14 13
Wind_Direction
298 300 303 307 316 321 325 321 318 317 317 321 319 319 321 313 311 315 268 184 187 244 271 251 233 225 273 212 257 312 330 337 346 359 337 325 292 312 287 285 340 306 273 184 204 219 250 19 325 203 356 314 305 290
298 299 306 317 321 324 318 317 318 319 318 317 314 316 314 321 312 301 266 192 215 235 264 284 268 263 247 246 311 274 270 280 226 321 324 299 295 285 303 326 275 314 257 296 237 279 316 279 234 264 277 274 303 302
302 316 319 322 320 320 320 322 320 318 319 319 316 312 311 308 309 311 275 191 197 265 276 310 251 260 218 224 215 217 235 215 217 237 265 285 281 299 314 315 295 257 259 245 292 237 275 297 329 187 208 58 32 22
316 317 319 320 320 321 321 321 322 321 320 317 314 311 307 303 304 305 257 199 208 290 281 280 288 275 207 184 190 211 218 107 114 219 245 254 268 221 283 286 283 282 306 306 278 281 297 346 28 20 42 43 33 31
316 317 317 323 323 325 327 323 321 321 319 317 314 309 307 305 303 293 258 230 202 195 279 291 305 255 281 204 190 201 204 184 203 241 240 240 265 282 290 293 307 334 327 357 348 348 12 3 20 357 35 29 20 34
316 319 326 325 325 324 324 323 321 319 315 314 311 306 303 300 299 289 299 191 193 173 260 289 282 292 323 101 133 168 188 176 211 223 246 276 252 263 346 288 279 323 336 329 308 8 23 336 8 23 34 12 19 15
324 324 324 325 326 324 325 323 321 320 318 312 305 300 296 284 251 216 209 19 150 128 241 274 301 282 317 102 92 142 157 195 200 242 246 254 284 240 140 265 296 335 357 18 15 28 14 10 10 31 43 37 19 11
324 327 326 329 326 326 325 326 323 323 316 311 306 302 295 257 222 242 240 233 169 213 236 272 276 328 204 294 281 166 199 196 200 247 205 239 310 229 266 256 301 342 33 43 18 22 3 33 47 48 33 37 42 36
328 328 331 327 328 328 329 323 324 330 322 319 314 311 98 95 166 225 305 188 187 269 289 209 247 267 332 297 97 245 242 249 21 237 238 128 296 235 226 232 334 22 33 46 27 35 25 33 45 52 55 43 48 50
328 327 329 327 327 328 326 326 343 337 323 328 4 337 164 30 317 306 191 182 158 208 219 242 132 268 44 343 294 125 302 269 266 246 257 133 257 260 244 229 236 3 42 84 75 33 33 28 49 46 51 56 52 44
323 329 326 323 327 325 320 336 344 343 353 5 4 337 308 309 318 229 223 199 178 242 221 245 219 239 269 187 242 190 201 280 355 268 236 307 289 240 224 219 238 142 117 96 104 103 99 87 66 49 42 39 39 39
326 324 323 325 324 322 320 332 336 1 270 258 279 286 274 297 266 225 206 183 206 233 195 203 234 204 263 174 153 225 170 37 255 329 5 278 251 228 162 174 283 125 134 109 89 71 77 82 73 61 48 45 41 36
323 320 318 318 323 322 329 332 330 322 320 306 205 236 216 211 321 218 216 225 206 147 194 186 297 221 215 195 217 93 117 230 15 31 245 236 252 251 165 134 122 126 131 118 103 97 90 81 71 77 64 43 52 46
317 314 314 316 311 324 331 326 326 335 312 291 274 262 216 222 238 213 199 170 101 217 266 279 241 226 165 177 188 161 215 73 37 279 241 253 243 215 162 145 131 143 165 139 131 113 105 96 77 71 78 62 65 49
314 316 320 341 347 334 325 322 321 256 217 252 239 240 237 233 258 258 294 285 284 292 318 322 264 201 178 8 305 93 139 243 202 230 233 249 224 178 154 123 112 170 162 145 139 122 115 105 99 89 69 68 67 69
320 320 265 339 333 327 320 321 323 136 247 238 243 259 265 331 297 345 311 271 284 293 310 205 231 174 220 189 190 222 147 219 245 226 233 265 193 178 164 149 151 166 195 170 147 136 132 131 122 111 94 80 66 63
318 230 304 322 322 319 316 281 300 235 236 241 250 227 251 252 243 242 220 251 263 1 274 201 212 223 105 225 243 200 204 225 235 270 253 209 205 202 189 174 145 148 158 162 135 132 126 118 114 108 100 84 80 66
271 280 306 313 323 320 288 240 256 260 254 244 251 272 230 245 263 277 252 253 127 251 268 250 237 214 217 216 239 259 264 244 207 252 266 264 201 216 209 189 175 155 170 160 157 132 135 139 127 120 121 119 101 81
289 301 304 311 317 308 300 288 223 269 254 277 276 270 243 263 253 252 270 279 213 220 261 270 228 208 206 207 237 248 259 266 277 306 269 263 244 196 192 203 208 167 160 154 158 159 167 160 148 146 139 132 119 120
304 307 313 320 353 0 291 279 352 277 285 276 284 276 269 245 264 259 255 257 214 208 212 226 224 267 331 319 246 255 254 242 248 299 282 269 240 211 201 193 192 180 165 140 121 116 119 108 119 136 136 135 127 119
326 291 330 357 338 221 259 302 286 237 290 296 306 336 274 280 266 276 284 186 87 217 260 0 345 322 298 287 294 282 281 224 228 227 265 274 224 201 185 191 191 169 156 147 154 159 148 162 144 133 128 114 109 109
264 330 288 185 297 264 248 237 231 281 287 270 317 253 273 268 267 242 198 170 183 38 341 324 323 328 320 318 316 312 293 287 264 260 276 206 241 182 195 184 164 182 179 175 161 169 159 136 137 134 126 122 118 116
316 265 203 272 280 327 261 44 263 264 283 292 324 312 300 300 267 331 303 97 86 353 334 340 329 317 303 307 300 299 314 334 301 259 252 237 242 223 202 177 169 174 175 180 156 155 145 140 140 133 130 128 123 116
10 293 288 275 250 271 305 280 245 299 305 321 308 297 311 291 310 292 340 55 17 354 342 354 338 328 316 324 317 324 312 299 312 303 278 236 219 227 192 182 182 185 189 162 150 143 144 148 140 141 145 143 138 134
2 280 237 271 241 273 281 271 260 350 281 298 271 256 276 290 270 17 50 4 337 349 345 345 355 347 334 347 343 341 345 334 316 305 297 262 235 145 165 169 179 166 147 141 151 149 147 149 150 150 154 150 146 144
259 236 172 218 251 219 294 316 338 284 288 277 291 327 289 294 292 57 42 348 339 344 337 336 346 335 335 338 340 336 328 322 305 287 284 242 214 203 197 175 175 198 186 166 153 156 157 159 157 155 155 146 143 142
258 275 222 228 250 300 259 248 260 242 267 279 4 323 313 345 38 4 326 359 331 332 328 330 343 342 337 339 335 336 332 324 292 268 281 314 269 204 183 183 198 194 156 158 161 161 157 159 162 161 152 146 160 157
238 261 216 209 229 209 262 239 252 247 266 281 353 336 349 45 4 318 329 330 330 328 335 345 350 348 350 345 341 343 345 348 347 339 287 24 38 39 5 342 144 146 160 162 160 162 162 160 164 160 157 156 155 154
243 257 253 268 248 216 213 212 240 239 234 289 29 5 61 46 333 320 310 326 327 343 352 354 357 351 358 0 2 1 1 3 7 13 19 20 7 357 346 341 50 78 126 121 95 132 145 152 156 153 147 143 140 136
245 178 225 260 253 241 212 201 234 237 250 232 130 107 110 81 15 354 356 351 358 3 1 2 0 1 2 2 359 8 14 13 7 7 349 2 352 331 343 4 24 56 108 111 118 107 101 109 107 113 115 124 133 131
191 187 234 220 253 240 222 217 235 217 199 41 47 111 125 168 137 36 16 357 356 2 12 12 11 9 5 9 7 2 3 2 360 3 3 335 15 5 359 350 25 55 86 112 122 122 126 127 131 129 128 129 129 130
200 225 260 278 275 280 321 192 211 111 71 70 29 87 89 68 49 359 8 352 4 3 359 5 9 6 6 8 6 2 355 352 0 360 4 7 13 5 13 17 25 52 57 70 101 115 114 108 112 119 120 118 115 114
252 199 213 275 300 295 300 327 221 103 88 94 61 41 68 89 90 22 12 9 3 354 352 357 357 350 359 9 6 359 2 357 357 8 11 19 25 24 23 21 25 47 70 74 74 82 91 104 107 110 104 107 112 115